Weather History for K4O4 - November, 2013

Change the Weather History Date:

Saturday, November 9, 2013

  Actual Average (KDEQ) Record (KDEQ)
Temperature  
Mean Temperature 54 °F 55 °F  
Max Temperature 59 °F 68 °F 84 °F (2005)
Min Temperature 50 °F 42 °F 18 °F (1991)
Degree Days  
Heating Degree Days 10 10  
Month to date heating degree days 79  
Since 1 July heating degree days 212  
Cooling Degree Days 0 0  
Month to date cooling degree days 5  
Year to date cooling degree days 1939  
Growing Degree Days 4 (Base 50)    
Moisture  
Dew Point 48 °F    
Average Humidity 82    
Maximum Humidity 94    
Minimum Humidity 63    
Precipitation  
Precipitation 0.01 in 0.17 in 1.73 in (1940)
Month to date precipitation 1.52  
Year to date precipitation 41.24  
Snow  
Snow 0.00 in - - ()
Month to date snowfall  
Since 1 July snowfall  
Since 1 September snowfall  
Snow Depth -    
Sea Level Pressure  
Sea Level Pressure 30.21 in    
Wind  
Wind Speed 5 mph (ESE)    
Max Wind Speed 12 mph    
Max Gust Speed -    
Visibility 10 miles    
Events      
T = Trace of Precipitation, MM = Missing Value Source: NWS Daily Summary

Daily Weather History Graph

Daily Weather History Graph

Search for Another Location

Airport or City:

Trip Planner

Search our weather history database for the weather conditions in past years. The results will help you decide how hot, cold, wet, or windy it might be!

Date:

Astronomy

Nov. 09, 2013 Rise Set
Actual Time 6:46 AM CST 5:19 PM CST
Civil Twilight 6:20 AM CST 5:45 PM CST
Nautical Twilight 5:50 AM CST 6:15 PM CST
Astronomical Twilight 5:20 AM CST 6:45 PM CST
Moon 12:26 PM CST (11/9) 11:46 PM CST (11/9)
Length of Visible Light 11h 25m
Length of Day
10h 33m
Waxing Crescent, 44% of the Moon is Illuminated
Nov 9
Waxing Crescent
Nov 9
First Quarter
Nov 17
Full
Nov 25
Last Quarter
Dec 2
New

Hourly Weather History & Observations

Time (CST) Temp. Dew Point Humidity Pressure Visibility Wind Dir Wind Speed Gust Speed Precip Events Conditions
12:15 AM 51.8 °F 44.6 °F 76% 30.16 in 10.0 mi South 4.6 mph - N/A   Clear
12:35 AM 51.8 °F 44.6 °F 76% 30.17 in 10.0 mi Calm Calm - N/A   Clear
12:55 AM 51.8 °F 44.6 °F 76% 30.18 in 10.0 mi Calm Calm - N/A   Clear
1:15 AM 51.8 °F 44.6 °F 76% 30.18 in 10.0 mi North 3.5 mph - N/A   Clear
1:35 AM 50.0 °F 46.4 °F 87% 30.17 in 10.0 mi NE 3.5 mph - N/A   Clear
1:55 AM 50.0 °F 46.4 °F 87% 30.18 in 10.0 mi SSE 4.6 mph - N/A   Clear
2:15 AM 51.8 °F 44.6 °F 76% 30.19 in 10.0 mi South 6.9 mph - N/A   Clear
2:35 AM 51.8 °F 44.6 °F 76% 30.18 in 10.0 mi South 11.5 mph - N/A   Scattered Clouds
2:55 AM 50.0 °F 44.6 °F 82% 30.18 in 10.0 mi South 6.9 mph - N/A   Clear
3:15 AM 50.0 °F 44.6 °F 82% 30.18 in 10.0 mi SSE 8.1 mph - N/A   Clear
3:35 AM 50.0 °F 44.6 °F 82% 30.18 in 10.0 mi South 5.8 mph - N/A   Clear
3:55 AM 50.0 °F 44.6 °F 82% 30.17 in 10.0 mi SSE 4.6 mph - N/A   Clear
4:15 AM 50.0 °F 44.6 °F 82% 30.17 in 10.0 mi SSE 5.8 mph - N/A   Clear
4:35 AM 50.0 °F 44.6 °F 82% 30.18 in 10.0 mi SSE 5.8 mph - N/A   Clear
4:55 AM 50.0 °F 44.6 °F 82% 30.18 in 10.0 mi SE 3.5 mph - N/A   Clear
5:15 AM 50.0 °F 44.6 °F 82% 30.18 in 10.0 mi SE 4.6 mph - N/A   Clear
5:35 AM 50.0 °F 44.6 °F 82% 30.19 in 10.0 mi SSE 4.6 mph - N/A   Scattered Clouds
5:55 AM 50.0 °F 44.6 °F 82% 30.18 in 10.0 mi SSE 6.9 mph - N/A   Clear
6:15 AM 50.0 °F 44.6 °F 82% 30.18 in 10.0 mi SSE 5.8 mph - N/A   Clear
6:35 AM 50.0 °F 44.6 °F 82% 30.19 in 10.0 mi SSE 6.9 mph - N/A   Clear
6:55 AM 50.0 °F 46.4 °F 87% 30.20 in 10.0 mi South 5.8 mph - N/A   Clear
7:15 AM 50.0 °F 46.4 °F 87% 30.20 in 10.0 mi South 6.9 mph - N/A   Clear
7:35 AM 50.0 °F 46.4 °F 87% 30.21 in 10.0 mi Calm Calm - N/A   Clear
7:55 AM 50.0 °F 46.4 °F 87% 30.21 in 10.0 mi SSE 3.5 mph - N/A   Clear
8:15 AM 50.0 °F 46.4 °F 87% 30.22 in 10.0 mi SE 3.5 mph - N/A   Clear
8:35 AM 51.8 °F 46.4 °F 82% 30.23 in 10.0 mi SE 3.5 mph - N/A   Scattered Clouds
8:55 AM 51.8 °F 46.4 °F 82% 30.23 in 10.0 mi SE 3.5 mph - N/A   Clear
9:15 AM 51.8 °F 46.4 °F 82% 30.23 in 10.0 mi SE 4.6 mph - 0.01 in   Scattered Clouds
9:35 AM 51.8 °F 46.4 °F 82% 30.23 in 10.0 mi ESE 5.8 mph - 0.01 in   Clear
9:55 AM 51.8 °F 48.2 °F 88% 30.23 in 10.0 mi ESE 5.8 mph - 0.01 in   Clear
10:15 AM 53.6 °F 48.2 °F 82% 30.22 in 10.0 mi ESE 8.1 mph - N/A   Clear
10:35 AM 53.6 °F 48.2 °F 82% 30.23 in 10.0 mi ESE 5.8 mph - N/A   Clear
10:55 AM 55.4 °F 46.4 °F 72% 30.22 in 10.0 mi SE 5.8 mph - N/A   Clear
11:15 AM 55.4 °F 48.2 °F 77% 30.23 in 10.0 mi SSE 4.6 mph - N/A   Clear
11:35 AM 55.4 °F 48.2 °F 77% 30.22 in 10.0 mi SE 3.5 mph - N/A   Clear
11:55 AM 55.4 °F 46.4 °F 72% 30.22 in 10.0 mi SSE 5.8 mph - N/A   Clear
12:15 PM 57.2 °F 46.4 °F 67% 30.21 in 10.0 mi SSE 4.6 mph - N/A   Clear
12:35 PM 59.0 °F 46.4 °F 63% 30.20 in 10.0 mi SE 5.8 mph - N/A   Clear
12:55 PM 59.0 °F 46.4 °F 63% 30.20 in 10.0 mi ESE 3.5 mph - N/A   Clear
1:15 PM 59.0 °F 46.4 °F 63% 30.20 in 10.0 mi ESE 6.9 mph - N/A   Clear
1:35 PM 59.0 °F 48.2 °F 67% 30.20 in 10.0 mi East 6.9 mph - N/A   Clear
1:55 PM 57.2 °F 48.2 °F 72% 30.19 in 10.0 mi East 6.9 mph - N/A   Clear
2:15 PM 57.2 °F 50.0 °F 77% 30.20 in 10.0 mi East 8.1 mph - N/A   Clear
2:35 PM 57.2 °F 50.0 °F 77% 30.19 in 10.0 mi East 6.9 mph - N/A   Clear
2:55 PM 57.2 °F 50.0 °F 77% 30.19 in 10.0 mi East 5.8 mph - N/A   Scattered Clouds
3:15 PM 57.2 °F 50.0 °F 77% 30.20 in 10.0 mi East 6.9 mph - N/A   Scattered Clouds
3:35 PM 57.2 °F 50.0 °F 77% 30.19 in 10.0 mi ENE 5.8 mph - N/A   Scattered Clouds
3:55 PM 57.2 °F 50.0 °F 77% 30.20 in 10.0 mi ENE 6.9 mph - N/A   Clear
4:15 PM 55.4 °F 50.0 °F 82% 30.20 in 10.0 mi ENE 5.8 mph - N/A   Clear
4:35 PM 55.4 °F 50.0 °F 82% 30.20 in 10.0 mi ENE 6.9 mph - N/A   Scattered Clouds
4:55 PM 55.4 °F 50.0 °F 82% 30.21 in 10.0 mi East 6.9 mph - N/A   Clear
5:15 PM 55.4 °F 50.0 °F 82% 30.22 in 10.0 mi East 5.8 mph - N/A   Scattered Clouds
5:35 PM 53.6 °F 50.0 °F 88% 30.22 in 10.0 mi ENE 6.9 mph - N/A   Clear
5:55 PM 53.6 °F 50.0 °F 88% 30.23 in 10.0 mi ENE 6.9 mph - N/A   Clear
6:15 PM 53.6 °F 50.0 °F 88% 30.23 in 10.0 mi ENE 6.9 mph - N/A   Clear
6:35 PM 53.6 °F 50.0 °F 88% 30.23 in 10.0 mi East 6.9 mph - N/A   Clear
6:55 PM 53.6 °F 50.0 °F 88% 30.24 in 10.0 mi East 6.9 mph - N/A   Clear
7:15 PM 53.6 °F 50.0 °F 88% 30.24 in 10.0 mi East 6.9 mph - N/A   Scattered Clouds
7:35 PM 53.6 °F 50.0 °F 88% 30.24 in 10.0 mi East 4.6 mph - N/A   Mostly Cloudy
7:55 PM 53.6 °F 50.0 °F 88% 30.25 in 10.0 mi East 5.8 mph - N/A   Mostly Cloudy
8:35 PM 53.6 °F 50.0 °F 88% 30.25 in 10.0 mi ESE 5.8 mph - N/A   Clear
8:55 PM 53.6 °F 50.0 °F 88% 30.25 in 10.0 mi ESE 5.8 mph - N/A   Clear
9:15 PM 53.6 °F 50.0 °F 88% 30.26 in 10.0 mi ESE 5.8 mph - N/A   Clear
9:35 PM 53.6 °F 50.0 °F 88% 30.26 in 10.0 mi ESE 4.6 mph - N/A   Clear
9:55 PM 53.6 °F 48.2 °F 82% 30.26 in 10.0 mi SE 3.5 mph - N/A   Clear
10:15 PM 53.6 °F 50.0 °F 88% 30.27 in 10.0 mi ESE 3.5 mph - N/A   Clear
10:35 PM 53.6 °F 50.0 °F 88% 30.27 in 10.0 mi East 3.5 mph - N/A   Scattered Clouds
10:55 PM 53.6 °F 50.0 °F 88% 30.27 in 10.0 mi East 3.5 mph - N/A   Mostly Cloudy
11:15 PM 51.8 °F 50.0 °F 94% 30.27 in 7.0 mi ENE 3.5 mph - N/A   Mostly Cloudy
11:35 PM 51.8 °F 50.0 °F 94% 30.27 in 10.0 mi East 3.5 mph - N/A   Mostly Cloudy
11:55 PM 51.8 °F 50.0 °F 94% 30.28 in 4.0 mi NNE 3.5 mph - N/A   Overcast